GW1010 Weather Reports


Display with metric or nautical units.
time (UTC)temp
F
wind
direction
speed
MPH
gust
MPH
rain 1hr
in
rain 24hr
in
rain mn
in
humidity
%
barometer
mb
20260905091604 59 0 0.0 0.0 0.00 0.00 0.00 86 1014.9
20260905091029 59 0 0.0 0.0 0.00 0.00 0.00 86 1015.0
20260905090527 59 0 0.0 0.0 0.00 0.00 0.00 86 1015.0
20260905090056 59 0 0.0 0.0 0.00 0.00 0.00 87 1015.0
20260905085527 59 0 0.0 0.0 0.00 0.00 0.00 87 1014.9
20260905085030 59 0 0.0 0.0 0.00 0.00 0.00 88 1014.9
20260905084610 59 0 0.0 0.0 0.00 0.00 0.00 87 1015.0
20260905084030 59 0 0.0 0.0 0.00 0.00 0.00 87 1015.1
20260905083529 59 0 0.0 0.0 0.00 0.00 0.00 87 1015.1
20260905083049 59 0 0.0 0.0 0.00 0.00 0.00 87 1015.0
20260905082527 59 0 0.0 0.0 0.00 0.00 0.00 87 1015.1
20260905082027 59 0 0.0 0.0 0.00 0.00 0.00 87 1015.0
20260905081552 59 0 0.0 0.0 0.00 0.00 0.00 87 1015.1
20260905081030 59 0 0.0 0.0 0.00 0.00 0.00 87 1015.2
20260905080529 59 0 0.0 0.0 0.00 0.00 0.00 86 1015.2
20260905080044 60 0 0.0 0.0 0.00 0.00 0.00 86 1015.2
20260905075527 60 0 0.0 0.0 0.00 0.00 0.00 86 1015.2
20260905075029 60 0 0.0 0.0 0.00 0.00 0.00 85 1015.3
20260905074604 60 0 0.0 0.0 0.00 0.00 0.00 85 1015.3
20260905074027 60 0 0.0 0.0 0.00 0.00 0.00 85 1015.3
20260905073527 61 0 0.0 0.0 0.00 0.00 0.00 84 1015.2
20260905073046 61 0 0.0 0.0 0.00 0.00 0.00 84 1015.3
20260905072527 61 0 0.0 0.0 0.00 0.00 0.00 84 1015.3
20260905072028 61 0 0.0 0.0 0.00 0.00 0.00 83 1015.3
20260905071546 61 0 0.0 0.0 0.00 0.00 0.00 83 1015.3
20260905071030 62 0 0.0 0.0 0.00 0.00 0.00 83 1015.3
20260905070527 62 0 0.0 0.0 0.00 0.00 0.00 82 1015.3
20260905070105 62 0 0.0 0.0 0.00 0.00 0.00 82 1015.2
20260905065529 62 0 0.0 0.0 0.00 0.00 0.00 82 1015.1
20260905065027 63 0 0.0 0.0 0.00 0.00 0.00 81 1015.1
20260905064546 63 0 0.0 0.0 0.00 0.00 0.00 81 1015.1
20260905064026 63 0 0.0 0.0 0.00 0.00 0.00 82 1015.1
20260905063524 63 0 0.0 0.0 0.00 0.00 0.00 82 1015.1
20260905063050 63 0 0.0 0.0 0.00 0.00 0.00 82 1015.1
20260905062527 63 0 0.0 0.0 0.00 0.00 0.00 82 1015.1
20260905062027 63 0 0.0 0.0 0.00 0.00 0.00 82 1015.1
20260905061550 63 0 0.0 0.0 0.00 0.00 0.00 83 1015.1
20260905061026 63 0 0.0 0.0 0.00 0.00 0.00 83 1015.1
20260905060526 63 0 0.0 0.0 0.00 0.00 0.00 83 1015.2
20260905060054 63 0 0.0 0.0 0.00 0.00 0.00 84 1015.1
20260905055526 63 0 0.0 0.0 0.00 0.00 0.00 84 1015.1
20260905055027 63 0 0.0 0.0 0.00 0.00 0.00 84 1015.1
20260905054600 63 0 0.0 0.0 0.00 0.00 0.00 84 1015.1
20260905054031 63 0 0.0 0.0 0.00 0.00 0.00 83 1014.8
20260905053526 63 0 0.0 0.0 0.00 0.00 0.00 83 1014.9
20260905053046 63 0 0.0 0.0 0.00 0.00 0.00 83 1015.0
20260905052529 63 0 0.0 0.0 0.00 0.00 0.00 82 1015.0
20260905052030 63 0 0.0 0.0 0.00 0.00 0.00 82 1015.0
20260905051551 63 0 0.0 0.0 0.00 0.00 0.00 81 1015.0
20260905051027 63 0 0.0 0.0 0.00 0.00 0.00 81 1015.1
20260905050527 63 0 0.0 0.0 0.00 0.00 0.00 81 1015.1
20260905050049 64 0 0.0 0.0 0.00 0.00 0.00 81 1015.0
20260905045526 64 0 0.0 0.0 0.00 0.00 0.00 80 1015.1
20260905045030 64 0 0.0 2.0 0.00 0.00 0.00 80 1015.0
20260905044544 64 0 0.0 2.0 0.00 0.00 0.00 80 1015.0
20260905044026 64 0 0.0 0.0 0.00 0.00 0.00 81 1015.0
20260905043525 64 0 0.0 0.0 0.00 0.00 0.00 81 1015.0
20260905043054 64 0 0.0 0.0 0.00 0.00 0.00 81 1015.0
20260905042530 64 0 0.0 0.0 0.00 0.00 0.00 81 1014.9
20260905042027 64 0 0.0 0.0 0.00 0.00 0.00 81 1014.9
20260905041556 64 0 0.0 0.0 0.00 0.00 0.00 82 1014.7
20260905041028 64 0 0.0 0.0 0.00 0.00 0.00 82 1014.7
20260905040527 64 0 0.0 0.0 0.00 0.00 0.00 81 1014.7
20260905040045 64 0 0.0 0.0 0.00 0.00 0.00 80 1014.7
20260905035527 64 0 0.0 0.0 0.00 0.00 0.00 80 1014.6
20260905035029 64 0 0.0 0.0 0.00 0.00 0.00 80 1014.7
20260905034556 64 0 0.0 0.0 0.00 0.00 0.00 80 1014.7
20260905034028 64 0 0.0 0.0 0.00 0.00 0.00 79 1014.6
20260905033529 65 0 0.0 0.0 0.00 0.00 0.00 78 1014.5
20260905033051 65 0 0.0 2.0 0.00 0.00 0.00 78 1014.4
20260905032527 65 0 0.0 2.0 0.00 0.00 0.00 78 1014.3
20260905032030 65 89 0.0 2.0 0.00 0.00 0.00 77 1014.2
20260905031555 66 236 0.0 2.0 0.00 0.00 0.00 77 1014.1
20260905031029 66 91 0.0 3.0 0.00 0.00 0.00 77 1014.0
20260905030529 66 90 0.0 3.0 0.00 0.00 0.00 77 1013.9
20260905030056 66 0 1.0 3.0 0.00 0.00 0.00 77 1013.9
20260905025529 66 0 1.0 3.0 0.00 0.00 0.00 76 1013.9
20260905025027 67 82 0.0 3.0 0.00 0.00 0.00 75 1013.9
20260905024548 67 0 0.0 2.0 0.00 0.00 0.00 75 1013.9
20260905024027 67 0 0.0 2.0 0.00 0.00 0.00 74 1013.9
20260905023527 68 0 0.0 3.0 0.00 0.00 0.00 74 1013.8
20260905023045 68 212 0.0 3.0 0.00 0.00 0.00 73 1013.8
20260905022530 68 122 0.0 2.0 0.00 0.00 0.00 72 1013.7
20260905022033 69 0 0.0 1.0 0.00 0.00 0.00 70 1013.8
20260905021544 69 0 0.0 3.0 0.00 0.00 0.00 70 1013.7
20260905021030 69 0 0.0 3.0 0.00 0.00 0.00 68 1013.7
20260905020529 70 0 0.0 5.0 0.00 0.00 0.00 68 1013.7
20260905020059 70 0 0.0 5.0 0.00 0.00 0.00 67 1013.8
20260905015526 70 210 1.0 3.0 0.00 0.00 0.00 67 1013.7
20260905015028 71 249 0.0 3.0 0.00 0.00 0.00 66 1013.7
20260905014553 71 0 0.0 3.0 0.00 0.00 0.00 66 1013.8
20260905014027 72 0 0.0 4.0 0.00 0.00 0.00 65 1013.8
20260905013530 72 203 1.0 4.0 0.00 0.00 0.00 63 1013.7
20260905013045 73 290 0.0 4.0 0.00 0.00 0.00 62 1013.7
20260905012547 73 204 1.0 7.0 0.00 0.00 0.00 61 1013.6
20260905012027 74 0 1.0 7.0 0.00 0.00 0.00 60 1013.6
20260905011544 75 198 0.0 6.0 0.00 0.00 0.00 58 1013.6
20260905011028 76 0 1.0 6.0 0.00 0.00 0.00 56 1013.7
20260905010525 76 169 1.0 6.0 0.00 0.00 0.00 56 1013.5
20260905010053 76 107 2.0 6.0 0.00 0.00 0.00 55 1013.6
20260905005528 77 223 1.0 5.0 0.00 0.00 0.00 55 1013.5
20260905005029 77 65 1.0 5.0 0.00 0.00 0.00 55 1013.5
20260905004548 77 4 2.0 6.0 0.00 0.00 0.00 55 1013.6
20260905004030 77 106 2.0 6.0 0.00 0.00 0.00 54 1013.5
20260905003530 78 245 1.0 5.0 0.00 0.00 0.00 55 1013.4
20260905003048 78 63 1.0 4.0 0.00 0.00 0.00 55 1013.4
20260905002525 78 146 1.0 4.0 0.00 0.00 0.00 55 1013.4
20260905002027 78 219 2.0 6.0 0.00 0.00 0.00 54 1013.3
20260905001544 78 113 2.0 7.0 0.00 0.00 0.00 55 1013.2
20260905001025 78 82 2.0 8.0 0.00 0.00 0.00 54 1013.1
20260905000528 79 210 3.0 8.0 0.00 0.00 0.00 52 1013.1
20260905000057 80 162 1.0 4.0 0.00 0.00 0.00 52 1013.1
20260904235527 80 215 1.0 4.0 0.00 0.00 0.00 52 1013.1
20260904235026 80 233 1.0 6.0 0.00 0.00 0.00 52 1013.1
20260904234552 80 288 1.0 6.0 0.00 0.00 0.00 52 1013.1
20260904234026 80 173 1.0 6.0 0.00 0.00 0.00 51 1013.0
20260904233527 81 102 1.0 6.0 0.00 0.00 0.00 51 1013.1
20260904233055 81 177 1.0 6.0 0.00 0.00 0.00 50 1013.1
20260904232527 81 277 1.0 5.0 0.00 0.00 0.00 51 1013.1
20260904232031 80 92 2.0 5.0 0.00 0.00 0.00 50 1013.2
20260904231545 81 99 1.0 7.0 0.00 0.00 0.00 51 1013.2
20260904231025 81 225 3.0 7.0 0.00 0.00 0.00 49 1013.3
20260904230527 82 226 1.0 7.0 0.00 0.00 0.00 48 1013.2
20260904230103 81 96 3.0 7.0 0.00 0.00 0.00 49 1013.4
20260904225529 82 108 3.0 7.0 0.00 0.00 0.00 48 1013.4
20260904225029 82 201 1.0 6.0 0.00 0.00 0.00 49 1013.3
20260904224606 82 264 1.0 6.0 0.00 0.00 0.00 49 1013.4
20260904224028 82 216 2.0 6.0 0.00 0.00 0.00 48 1013.4
20260904223526 82 235 2.0 3.0 0.00 0.00 0.00 49 1013.4
20260904223045 83 203 0.0 6.0 0.00 0.00 0.00 50 1013.4
20260904222526 82 0 1.0 6.0 0.00 0.00 0.00 51 1013.4
20260904222029 82 94 2.0 7.0 0.00 0.00 0.00 50 1013.4
20260904221546 82 229 2.0 10.0 0.00 0.00 0.00 50 1013.4
20260904221027 83 148 2.0 10.0 0.00 0.00 0.00 50 1013.4
20260904220530 83 260 1.0 5.0 0.00 0.00 0.00 49 1013.4
20260904220057 83 137 1.0 5.0 0.00 0.00 0.00 49 1013.5
20260904215529 83 246 1.0 5.0 0.00 0.00 0.00 49 1013.6
20260904215029 83 57 1.0 5.0 0.00 0.00 0.00 48 1013.7
20260904214555 83 233 1.0 5.0 0.00 0.00 0.00 49 1013.7
20260904214032 83 110 2.0 5.0 0.00 0.00 0.00 49 1013.7
20260904213529 83 225 1.0 5.0 0.00 0.00 0.00 50 1013.7
20260904213045 83 262 2.0 6.0 0.00 0.00 0.00 48 1013.6
20260904212527 82 0 1.0 6.0 0.00 0.00 0.00 51 1013.7
20260904212026 82 203 2.0 6.0 0.00 0.00 0.00 51 1013.7
20260904211545 81 15 1.0 5.0 0.00 0.00 0.00 50 1013.8
20260904211032 81 16 1.0 5.0 0.00 0.00 0.00 48 1013.8
20260904210527 81 0 1.0 4.0 0.00 0.00 0.00 49 1013.8
20260904210106 81 238 1.0 4.0 0.00 0.00 0.00 49 1013.8
20260904205530 81 0 1.0 4.0 0.00 0.00 0.00 49 1013.8
20260904205029 81 246 1.0 4.0 0.00 0.00 0.00 49 1013.8
20260904204547 81 141 0.0 6.0 0.00 0.00 0.00 50 1013.8
20260904204033 81 115 1.0 6.0 0.00 0.00 0.00 50 1013.8
20260904203530 81 238 1.0 4.0 0.00 0.00 0.00 50 1013.8
20260904203056 80 298 0.0 4.0 0.00 0.00 0.00 51 1013.8
20260904202526 79 0 0.0 4.0 0.00 0.00 0.00 51 1013.8
20260904202027 79 0 1.0 4.0 0.00 0.00 0.00 52 1013.8
20260904201554 79 222 1.0 4.0 0.00 0.00 0.00 52 1013.9
20260904201028 79 0 1.0 4.0 0.00 0.00 0.00 52 1013.9
20260904200527 79 0 1.0 4.0 0.00 0.00 0.00 52 1013.9
20260904200052 79 291 0.0 4.0 0.00 0.00 0.00 51 1014.0
20260904195526 78 311 1.0 4.0 0.00 0.00 0.00 51 1014.1
20260904195027 79 294 1.0 3.0 0.00 0.00 0.00 52 1014.2
20260904194546 79 318 0.0 3.0 0.00 0.00 0.00 53 1014.3
20260904194027 78 299 1.0 4.0 0.00 0.00 0.00 53 1014.3
20260904193527 79 257 1.0 4.0 0.00 0.00 0.00 53 1014.3
20260904193103 79 0 0.0 2.0 0.00 0.00 0.00 54 1014.4
20260904192532 78 0 0.0 0.0 0.00 0.00 0.00 54 1014.4
20260904192029 78 0 0.0 0.0 0.00 0.00 0.00 56 1014.5
20260904191553 77 0 0.0 2.0 0.00 0.00 0.00 57 1014.6
20260904191029 77 0 0.0 2.0 0.00 0.00 0.00 57 1014.6
20260904190528 76 212 0.0 2.0 0.00 0.00 0.00 56 1014.7
20260904190045 76 0 0.0 4.0 0.00 0.00 0.00 58 1014.7
20260904185527 76 0 0.0 4.0 0.00 0.00 0.00 56 1014.8
20260904185027 75 321 1.0 4.0 0.00 0.00 0.00 57 1014.7
20260904184543 75 298 0.0 3.0 0.00 0.00 0.00 59 1014.8
20260904184029 75 319 1.0 3.0 0.00 0.00 0.00 59 1014.9
20260904183529 75 340 0.0 2.0 0.00 0.00 0.00 61 1014.9
20260904183053 75 0 0.0 4.0 0.00 0.00 0.00 63 1014.9
20260904182528 75 316 2.0 5.0 0.00 0.00 0.00 59 1015.0
20260904182032 75 332 0.0 5.0 0.00 0.00 0.00 62 1014.9
20260904181551 75 320 0.0 4.0 0.00 0.00 0.00 61 1014.9
20260904181030 74 0 0.0 3.0 0.00 0.00 0.00 64 1015.0
20260904180531 74 302 1.0 3.0 0.00 0.00 0.00 63 1015.1
20260904180056 74 0 0.0 3.0 0.00 0.00 0.00 65 1015.1
20260904175525 73 0 0.0 2.0 0.00 0.00 0.00 66 1015.2
20260904175026 72 238 0.0 3.0 0.00 0.00 0.00 68 1015.2
20260904174553 71 190 0.0 3.0 0.00 0.00 0.00 68 1015.2
20260904174029 71 307 0.0 4.0 0.00 0.00 0.00 70 1015.2
20260904173527 70 340 1.0 4.0 0.00 0.00 0.00 70 1015.2
20260904173049 70 328 0.0 3.0 0.00 0.00 0.00 70 1015.2
20260904172528 70 309 1.0 3.0 0.00 0.00 0.00 70 1015.1
20260904172028 70 190 2.0 3.0 0.00 0.00 0.00 69 1015.1
20260904171551 70 195 1.0 3.0 0.00 0.00 0.00 71 1015.0
20260904171027 69 195 0.0 2.0 0.00 0.00 0.00 72 1015.0
20260904170526 69 0 1.0 4.0 0.00 0.00 0.00 72 1015.0
20260904170055 69 193 0.0 4.0 0.00 0.00 0.00 73 1015.0
20260904165533 69 155 0.0 4.0 0.00 0.00 0.00 72 1015.0
20260904165026 69 0 0.0 0.0 0.00 0.00 0.00 74 1015.0
20260904164557 67 0 0.0 1.0 0.00 0.00 0.00 78 1015.0
20260904164028 66 0 0.0 3.0 0.00 0.00 0.00 79 1015.0
20260904163531 65 0 0.0 3.0 0.00 0.00 0.00 80 1015.1
20260904163050 65 243 0.0 3.0 0.00 0.00 0.00 80 1015.1
20260904162525 65 236 0.0 2.0 0.00 0.00 0.00 81 1015.0
20260904162028 64 0 0.0 0.0 0.00 0.00 0.00 84 1015.0
20260904161544 62 0 0.0 0.0 0.00 0.00 0.00 84 1015.1
20260904161028 62 0 0.0 0.0 0.00 0.00 0.00 82 1015.1
20260904160527 61 0 0.0 0.0 0.00 0.00 0.00 83 1015.1
20260904160051 61 0 0.0 0.0 0.00 0.00 0.00 83 1015.1
20260904155524 60 0 0.0 0.0 0.00 0.00 0.00 84 1015.2
20260904155027 60 0 0.0 0.0 0.00 0.00 0.00 84 1015.1
20260904154557 60 0 0.0 0.0 0.00 0.00 0.00 84 1015.1
20260904154030 59 0 0.0 0.0 0.00 0.00 0.00 85 1015.1
20260904153529 59 0 0.0 0.0 0.00 0.00 0.00 85 1015.1
20260904153054 58 0 0.0 0.0 0.00 0.00 0.00 85 1015.2
20260904152530 58 0 0.0 0.0 0.00 0.00 0.00 86 1015.2
20260904152028 58 0 0.0 0.0 0.00 0.00 0.00 87 1015.1
20260904151545 57 0 0.0 0.0 0.00 0.00 0.00 87 1015.1
20260904151028 57 0 0.0 0.0 0.00 0.00 0.00 88 1015.1
20260904150530 56 0 0.0 0.0 0.00 0.00 0.00 88 1015.0
20260904150054 56 0 0.0 0.0 0.00 0.00 0.00 88 1015.0
20260904145530 56 0 0.0 0.0 0.00 0.00 0.00 89 1015.0
20260904145027 55 0 0.0 0.0 0.00 0.00 0.00 89 1014.9
20260904144550 55 0 0.0 0.0 0.00 0.00 0.00 89 1014.8
20260904144028 55 0 0.0 0.0 0.00 0.00 0.00 90 1014.8
20260904143528 54 0 0.0 0.0 0.00 0.00 0.00 90 1014.8
20260904143046 54 0 0.0 0.0 0.00 0.00 0.00 91 1014.7
20260904142526 54 0 0.0 0.0 0.00 0.00 0.00 91 1014.7
20260904142027 53 0 0.0 0.0 0.00 0.00 0.00 92 1014.6
20260904141544 53 0 0.0 0.0 0.00 0.00 0.00 93 1014.6
20260904141027 53 0 0.0 0.0 0.00 0.00 0.00 94 1014.6
20260904140524 52 0 0.0 0.0 0.00 0.00 0.00 94 1014.6
20260904140059 52 0 0.0 0.0 0.00 0.00 0.00 95 1014.6
20260904135528 52 0 0.0 0.0 0.00 0.00 0.00 95 1014.5
20260904135030 51 0 0.0 0.0 0.00 0.00 0.00 95 1014.5
20260904134543 51 0 0.0 0.0 0.00 0.00 0.00 95 1014.4
20260904134031 51 0 0.0 0.0 0.00 0.00 0.00 95 1014.4
20260904133528 51 0 0.0 0.0 0.00 0.00 0.00 95 1014.4
20260904133049 50 0 0.0 0.0 0.00 0.00 0.00 95 1014.4
20260904132531 50 0 0.0 0.0 0.00 0.00 0.00 95 1014.4
20260904132031 50 0 0.0 0.0 0.00 0.00 0.00 95 1014.4
20260904131546 49 0 0.0 0.0 0.00 0.00 0.00 95 1014.3
20260904131025 49 0 0.0 0.0 0.00 0.00 0.00 95 1014.3
20260904130527 49 0 0.0 0.0 0.00 0.00 0.00 95 1014.1
20260904130050 49 0 0.0 0.0 0.00 0.00 0.00 94 1014.1
20260904125528 49 0 0.0 0.0 0.00 0.00 0.00 95 1014.1
20260904125027 49 0 0.0 0.0 0.00 0.00 0.00 95 1014.1
20260904124550 49 0 0.0 0.0 0.00 0.00 0.00 95 1014.1
20260904124028 49 0 0.0 0.0 0.00 0.00 0.00 95 1014.0
20260904123533 49 0 0.0 0.0 0.00 0.00 0.00 95 1014.0
20260904123046 49 0 0.0 0.0 0.00 0.00 0.00 94 1014.0
20260904122527 49 0 0.0 0.0 0.00 0.00 0.00 94 1013.9
20260904122030 49 0 0.0 0.0 0.00 0.00 0.00 94 1013.9
20260904121541 49 0 0.0 0.0 0.00 0.00 0.00 94 1013.9
20260904121029 49 0 0.0 0.0 0.00 0.00 0.00 94 1013.9
20260904120529 49 0 0.0 0.0 0.00 0.00 0.00 94 1013.9
20260904120056 49 0 0.0 0.0 0.00 0.00 0.00 94 1013.9
20260904115528 49 0 0.0 0.0 0.00 0.00 0.00 94 1014.0
20260904115027 49 0 0.0 0.0 0.00 0.00 0.00 94 1013.9
20260904114548 50 0 0.0 0.0 0.00 0.00 0.00 94 1013.9
20260904114030 50 0 0.0 0.0 0.00 0.00 0.00 94 1013.9
20260904113526 50 0 0.0 0.0 0.00 0.00 0.00 93 1013.9
20260904113056 50 0 0.0 0.0 0.00 0.00 0.00 93 1013.9
20260904112532 50 0 0.0 0.0 0.00 0.00 0.00 94 1014.0
20260904112027 50 0 0.0 0.0 0.00 0.00 0.00 94 1014.0
20260904111555 50 0 0.0 0.0 0.00 0.00 0.00 93 1014.0
20260904111025 50 0 0.0 0.0 0.00 0.00 0.00 93 1013.9
20260904110526 50 0 0.0 0.0 0.00 0.00 0.00 93 1014.0
20260904110054 51 0 0.0 0.0 0.00 0.00 0.00 93 1013.9
20260904105527 51 0 0.0 0.0 0.00 0.00 0.00 93 1013.9
20260904105027 51 0 0.0 0.0 0.00 0.00 0.00 93 1013.9
20260904104549 51 0 0.0 0.0 0.00 0.00 0.00 92 1014.0
20260904104028 51 0 0.0 0.0 0.00 0.00 0.00 92 1014.0
20260904103526 51 0 0.0 0.0 0.00 0.00 0.00 92 1013.9
20260904103046 51 0 0.0 0.0 0.00 0.00 0.00 92 1013.9
20260904102531 52 0 0.0 0.0 0.00 0.00 0.00 92 1013.8
20260904102027 52 0 0.0 0.0 0.00 0.00 0.00 91 1013.8
20260904101554 52 0 0.0 0.0 0.00 0.00 0.00 91 1013.8
20260904101026 53 0 0.0 0.0 0.00 0.00 0.00 92 1013.8
20260904100525 53 0 0.0 0.0 0.00 0.00 0.00 92 1013.8
20260904100103 53 0 0.0 0.0 0.00 0.00 0.00 92 1013.8
20260904095528 54 0 0.0 0.0 0.00 0.00 0.00 92 1013.7
20260904095028 54 0 0.0 0.0 0.00 0.00 0.00 92 1013.8
20260904094548 54 0 0.0 0.0 0.00 0.00 0.00 92 1013.8
20260904094027 54 0 0.0 0.0 0.00 0.00 0.00 91 1013.8
20260904093528 55 0 0.0 0.0 0.00 0.00 0.00 91 1013.8
20260904093057 55 0 0.0 0.0 0.00 0.00 0.00 91 1013.8
20260904092528 55 0 0.0 0.0 0.00 0.00 0.00 91 1013.8
20260904092029 55 0 0.0 0.0 0.00 0.00 0.00 92 1013.8